Location: Taukkyan
(23.1052°N, 94.0030°E)
Time: 22:43:48
(UTC+00:00)

Palapa B4 Rocket - Pass Details

Date: 06 July 2020
Orbit: 502 x 2696 km, 19.7° (Epoch: 05 August)

Event Time Altitude Azimuth Distance (km) Brightness Sun altitude
Rises 14:26:35 0° 246° (WSW) 4,713 7.9 -22.9°
Reaches altitude 10° 14:30:33 10° 240° (WSW) 3,337 7.0 -23.6°
Enters shadow 14:37:24 41° 184° (S) 1,322 4.4 -24.8°
